Weather History for KMLI - May, 2013

Change the Weather History Date:

Sunday, May 5, 2013

  Actual Average Record
Temperature  
Mean Temperature 60 °F 58 °F  
Max Temperature 75 °F 69 °F 93 °F (1949)
Min Temperature 45 °F 47 °F 34 °F (1944)
Degree Days  
Heating Degree Days 5 8  
Month to date heating degree days 44 41  
Since 1 July heating degree days 6202 6064  
Cooling Degree Days 0 1  
Month to date cooling degree days 6 5  
Year to date cooling degree days 15 19  
Growing Degree Days 10 (Base 50)    
Moisture  
Dew Point 50 °F    
Average Humidity 67    
Maximum Humidity 96    
Minimum Humidity 38    
Precipitation  
Precipitation 0.00 in 0.13 in 1.39 in (1882)
Month to date precipitation 2.82 0.65  
Year to date precipitation 18.00 10.19  
Snow  
Snow 0.00 in 0.00 in - ()
Month to date snowfall 0.0 0.0  
Since 1 July snowfall 34.5 31.6  
Snow Depth 0.00 in    
Sea Level Pressure  
Sea Level Pressure 30.00 in    
Wind  
Wind Speed 5 mph (North)    
Max Wind Speed 18 mph    
Max Gust Speed 21 mph    
Visibility 8 miles    
Events      
T = Trace of Precipitation, MM = Missing Value Source: NWS Daily Summary

Daily Weather History Graph

Daily Weather History Graph

Search for Another Location

Airport or City:

Trip Planner

Search our weather history database for the weather conditions in past years. The results will help you decide how hot, cold, wet, or windy it might be!

Date:

Astronomy

May. 05, 2013 Rise Set
Actual Time 5:53 AM CDT 8:04 PM CDT
Civil Twilight 5:23 AM CDT 8:34 PM CDT
Nautical Twilight 4:45 AM CDT 9:12 PM CDT
Astronomical Twilight 4:04 AM CDT 9:54 PM CDT
Moon 3:27 AM CDT (5/5) 4:01 PM CDT (5/5)
Length of Visible Light 15h 11m
Length of Day
14h 10m
Waning Crescent, 18% of the Moon is Illuminated
May 5
Waning Crescent
May 9
New
May 17
First Quarter
May 24
Full
May 31
Last Quarter

Hourly Weather History & Observations

Time (CDT) Temp. Dew Point Humidity Pressure Visibility Wind Dir Wind Speed Gust Speed Precip Events Conditions
12:02 AM 57.2 °F 53.6 °F 88% 30.04 in 10.0 mi WSW 6.9 mph - N/A   Overcast
12:52 AM 55.0 °F 52.0 °F 89% 30.04 in 10.0 mi West 4.6 mph - N/A   Overcast
1:48 AM 53.6 °F 51.8 °F 94% 30.02 in 10.0 mi WSW 3.5 mph - N/A   Mostly Cloudy
1:52 AM 54.0 °F 52.0 °F 93% 30.02 in 10.0 mi Calm Calm - N/A   Scattered Clouds
2:52 AM 51.1 °F 50.0 °F 96% 30.01 in 8.0 mi WNW 3.5 mph - N/A   Clear
3:01 AM 51.8 °F 50.0 °F 94% 30.01 in 2.5 mi WNW 3.5 mph - N/A   Partly Cloudy
3:10 AM 51.8 °F 50.0 °F 94% 30.01 in 10.0 mi Calm Calm - N/A   Partly Cloudy
3:52 AM 51.1 °F 48.0 °F 89% 30.01 in 10.0 mi Calm Calm - N/A   Partly Cloudy
4:52 AM 48.0 °F 46.9 °F 96% 30.01 in 7.0 mi Calm Calm - N/A   Clear
4:58 AM 46.4 °F 46.4 °F 100% 30.01 in 1.5 mi Calm Calm - N/A   Clear
5:01 AM 44.6 °F 44.6 °F 100% 30.01 in 0.8 mi Calm Calm - N/A   Clear
5:11 AM 48.2 °F 46.4 °F 93% 30.01 in 1.8 mi Calm Calm - N/A   Clear
5:15 AM 48.2 °F 48.2 °F 100% 30.01 in 3.0 mi Calm Calm - N/A   Clear
5:42 AM 48.2 °F 46.4 °F 93% 30.01 in 2.5 mi Calm Calm - N/A   Mostly Cloudy
5:52 AM 48.9 °F 46.9 °F 93% 30.02 in 4.0 mi Calm Calm - N/A   Scattered Clouds
6:52 AM 50.0 °F 48.9 °F 96% 30.02 in 5.0 mi WNW 3.5 mph - N/A   Partly Cloudy
7:05 AM 53.6 °F 51.8 °F 94% 30.02 in 5.0 mi NW 4.6 mph - N/A   Mostly Cloudy
7:28 AM 55.4 °F 53.6 °F 94% 30.02 in 5.0 mi WNW 4.6 mph - N/A   Scattered Clouds
7:37 AM 55.4 °F 53.6 °F 94% 30.02 in 4.0 mi NW 3.5 mph - N/A   Mostly Cloudy
7:52 AM 55.9 °F 54.0 °F 93% 30.02 in 4.0 mi Calm Calm - N/A   Mostly Cloudy
8:18 AM 57.2 °F 53.6 °F 88% 30.02 in 5.0 mi NNW 5.8 mph - N/A   Scattered Clouds
8:52 AM 59.0 °F 55.0 °F 87% 30.03 in 7.0 mi North 5.8 mph - N/A   Clear
9:52 AM 62.1 °F 55.9 °F 80% 30.02 in 7.0 mi North 8.1 mph - N/A   Partly Cloudy
10:52 AM 63.0 °F 53.1 °F 70% 30.02 in 10.0 mi NE 8.1 mph - N/A   Clear
11:52 AM 66.9 °F 54.0 °F 63% 30.01 in 10.0 mi NE 4.6 mph - N/A   Clear
12:52 PM 70.0 °F 51.1 °F 51% 29.98 in 10.0 mi North 6.9 mph - N/A   Clear
1:52 PM 72.0 °F 53.1 °F 51% 29.96 in 10.0 mi NNE 9.2 mph - N/A   Clear
2:52 PM 71.1 °F 48.9 °F 45% 29.95 in 10.0 mi ENE 8.1 mph - N/A   Mostly Cloudy
3:52 PM 75.0 °F 48.0 °F 38% 29.94 in 10.0 mi NNE 10.4 mph - N/A   Partly Cloudy
4:52 PM 73.9 °F 46.9 °F 38% 29.94 in 10.0 mi NE 10.4 mph - N/A   Scattered Clouds
5:52 PM 72.0 °F 45.0 °F 38% 29.94 in 10.0 mi ENE 13.8 mph - N/A   Clear
6:52 PM 71.1 °F 44.1 °F 38% 29.94 in 10.0 mi NE 6.9 mph - N/A   Mostly Cloudy
7:52 PM 68.0 °F 43.0 °F 40% 29.96 in 10.0 mi East 10.4 mph - N/A   Partly Cloudy
8:52 PM 60.1 °F 46.0 °F 60% 29.98 in 10.0 mi ENE 6.9 mph - N/A   Clear
9:52 PM 59.0 °F 48.0 °F 67% 30.01 in 10.0 mi East 3.5 mph - N/A   Scattered Clouds
10:52 PM 55.9 °F 48.9 °F 77% 30.01 in 10.0 mi Calm Calm - N/A   Mostly Cloudy
11:52 PM 55.9 °F 50.0 °F 80% 30.01 in 10.0 mi Calm Calm - N/A   Mostly Cloudy